sat.trackr.live / text

‹ back to catalog

STARLINK-2147

NORAD 47736 · 2021-017Q

PAYLOAD ACTIVE UNKNOWN

§ Identity

Operator
Country
US
Launch date
2021-03-04
Launch site
AFETR
Launch vehicle
Mass (kg)
RCS (m²)

Purposes: comms

External: N2YO · Heavens-Above · Gunter

§ Orbital elements

Epoch: 2026-09-20T03:29:25.279008Z

Period
91.38 min
Inclination
53.0690°
Eccentricity
0.0005257
Mean motion
15.75825188 rev/d
Perigee alt
338.8 km
Apogee alt
345.8 km
Semi-major
6,720.4 km
B*
5.4189e-4
RAAN
349.8767°
Arg perigee
348.3812°
Mean anomaly
11.7085°
Rev number
30,806

§ Raw data

STARLINK-21471 47736U 21017Q   26263.14543147  .00085507  00000+0  54189-3 0  99902 47736  53.0690 349.8767 0005257 348.3812  11.7085 15.75825188308063

JSON: /api/v1/satellites/47736 · /tle

For live sub-satellite position, see the globe view (requires WebGL).

§ Visibility from observer

Set your observer location to see the next 7 days of passes ≥ 10°. The values pass through the URL so the page stays shareable.

No JS? Fill the form by hand. The geolocation button needs JavaScript.